Weather History for KRMG - June, 2013

Change the Weather History Date:

Saturday, June 8, 2013

  Actual Average Record
Temperature  
Mean Temperature 76 °F 75 °F  
Max Temperature 84 °F 86 °F 96 °F (2006)
Min Temperature 67 °F 63 °F 48 °F (1998)
Cooling Degree Days 11 10  
Month to date cooling degree days 91 70  
Year to date cooling degree days 234 238  
Since 1 June cooling degree days 91 70  
Growing Degree Days 25 (Base 50)    
Moisture  
Dew Point 67 °F    
Average Humidity 78    
Maximum Humidity 100    
Minimum Humidity 55    
Precipitation  
Precipitation 0.00 in 0.13 in 0.36 in (2014)
Month to date precipitation 1.52 1.09  
Year to date precipitation 16.32 23.96  
Sea Level Pressure  
Sea Level Pressure 29.95 in    
Wind  
Wind Speed 2 mph (SW)    
Max Wind Speed 10 mph    
Max Gust Speed 15 mph    
Visibility 5 miles    
Events Fog    
T = Trace of Precipitation, MM = Missing Value Source: NWS Daily Summary

Daily Weather History Graph

Daily Weather History Graph

Search for Another Location

Airport or City:

Trip Planner

Search our weather history database for the weather conditions in past years. The results will help you decide how hot, cold, wet, or windy it might be!

Date:

Astronomy

Jun. 08, 2013 Rise Set
Actual Time 6:28 AM EDT 8:51 PM EDT
Civil Twilight 5:58 AM EDT 9:20 PM EDT
Nautical Twilight 5:23 AM EDT 9:56 PM EDT
Astronomical Twilight 4:43 AM EDT 10:36 PM EDT
Moon 6:32 AM EDT (6/8) 8:55 PM EDT (6/8)
Length of Visible Light 15h 21m
Length of Day
14h 23m
New Moon, 0% of the Moon is Illuminated
Jun 8
New Moon
Jun 16
First Quarter
Jun 23
Full
Jun 30
Last Quarter
Jul 8
New

Hourly Weather History & Observations

Time (EDT) Temp. Heat Index Dew Point Humidity Pressure Visibility Wind Dir Wind Speed Gust Speed Precip Events Conditions
12:05 AM 66.2 °F - 66.2 °F 100% 29.89 in 1.8 mi Calm Calm - N/A   Clear
12:14 AM 68.0 °F - 68.0 °F 100% 29.89 in 3.0 mi SSW 3.5 mph - N/A   Clear
12:30 AM 68.0 °F - 68.0 °F 100% 29.88 in 4.0 mi Calm Calm - N/A   Scattered Clouds
12:33 AM 68.0 °F - 68.0 °F 100% 29.89 in 1.8 mi Calm Calm - N/A   Mostly Cloudy
12:50 AM 68.0 °F - 68.0 °F 100% 29.89 in 3.0 mi Calm Calm - N/A   Overcast
12:53 AM 68.0 °F - 68.0 °F 100% 29.86 in 2.5 mi Calm Calm - N/A   Overcast
1:02 AM 68.0 °F - 68.0 °F 100% 29.89 in 1.2 mi Calm Calm - N/A   Overcast
1:16 AM 66.2 °F - 66.2 °F 100% 29.89 in 0.5 mi Calm Calm - N/A Fog Fog
1:39 AM 68.0 °F - 68.0 °F 100% 29.88 in 1.8 mi Calm Calm - N/A   Overcast
1:48 AM 68.0 °F - 68.0 °F 100% 29.88 in 2.0 mi SW 3.5 mph - N/A   Overcast
1:53 AM 68.0 °F - 68.0 °F 100% 29.85 in 2.5 mi WSW 3.5 mph - N/A   Overcast
2:36 AM 68.0 °F - 68.0 °F 100% 29.88 in 3.0 mi Calm Calm - N/A   Overcast
2:46 AM 68.0 °F - 68.0 °F 100% 29.88 in 3.0 mi Calm Calm - N/A   Overcast
2:53 AM 68.0 °F - 68.0 °F 100% 29.86 in 3.0 mi Calm Calm - N/A   Overcast
3:23 AM 68.0 °F - 68.0 °F 100% 29.89 in 3.0 mi Calm Calm - N/A   Overcast
3:53 AM 68.0 °F - 68.0 °F 100% 29.88 in 3.0 mi Variable 3.5 mph - N/A   Overcast
4:53 AM 68.0 °F - 68.0 °F 100% 29.88 in 4.0 mi WSW 3.5 mph - N/A   Overcast
5:53 AM 68.0 °F - 68.0 °F 100% 29.89 in 3.0 mi Calm Calm - N/A   Overcast
6:40 AM 68.0 °F - 66.2 °F 94% 29.94 in 3.0 mi Calm Calm - N/A   Overcast
6:50 AM 68.0 °F - 66.2 °F 94% 29.94 in 2.0 mi SW 3.5 mph - N/A   Overcast
6:51 AM 68.0 °F - 66.9 °F 96% 29.92 in 2.0 mi SW 3.5 mph - N/A   Overcast
7:18 AM 68.0 °F - 66.2 °F 94% 29.95 in 3.0 mi Calm Calm - N/A   Overcast
7:30 AM 68.0 °F - 68.0 °F 100% 29.96 in 2.5 mi Calm Calm - N/A   Overcast
7:53 AM 68.0 °F - 66.9 °F 96% 29.94 in 2.5 mi SW 3.5 mph - N/A   Overcast
8:14 AM 68.0 °F - 66.2 °F 94% 29.97 in 3.0 mi SW 3.5 mph - N/A   Overcast
8:38 AM 69.8 °F - 66.2 °F 88% 29.99 in 3.0 mi SW 3.5 mph - N/A   Overcast
8:53 AM 69.1 °F - 66.9 °F 93% 29.97 in 3.0 mi Calm Calm - N/A   Overcast
9:53 AM 69.1 °F - 66.9 °F 93% 29.99 in 3.0 mi Variable 3.5 mph - N/A   Overcast
10:09 AM 69.8 °F - 66.2 °F 88% 30.01 in 4.0 mi South 5.8 mph - N/A   Overcast
10:53 AM 72.0 °F - 66.9 °F 84% 30.00 in 5.0 mi SSW 4.6 mph - N/A   Haze
11:10 AM 73.4 °F - 66.2 °F 78% 30.02 in 5.0 mi South 4.6 mph - N/A   Haze
11:37 AM 73.4 °F - 66.2 °F 78% 30.03 in 6.0 mi WSW 3.5 mph - N/A   Haze
11:53 AM 75.9 °F - 68.0 °F 76% 30.01 in 6.0 mi Calm Calm - N/A   Haze
12:53 PM 79.0 °F - 68.0 °F 69% 30.01 in 7.0 mi Calm Calm - N/A   Scattered Clouds
1:07 PM 78.8 °F - 66.2 °F 65% 30.03 in 8.0 mi Variable 4.6 mph - N/A   Mostly Cloudy
1:19 PM 78.8 °F - 66.2 °F 65% 30.03 in 8.0 mi South 4.6 mph - N/A   Mostly Cloudy
1:53 PM 78.1 °F - 66.0 °F 66% 30.00 in 8.0 mi Variable 5.8 mph - N/A   Mostly Cloudy
2:53 PM 80.1 °F 82.1 °F 66.0 °F 62% 29.98 in 9.0 mi Calm Calm - N/A   Overcast
3:53 PM 82.9 °F 84.6 °F 64.9 °F 54% 29.97 in 10.0 mi West 6.9 mph - N/A   Partly Cloudy
4:53 PM 82.9 °F 85.0 °F 66.0 °F 56% 29.97 in 10.0 mi SSW 4.6 mph - N/A   Partly Cloudy
5:53 PM 82.9 °F 84.6 °F 64.9 °F 54% 29.96 in 10.0 mi Variable 4.6 mph - N/A   Clear
6:53 PM 82.0 °F 84.1 °F 66.0 °F 58% 29.97 in 10.0 mi WSW 3.5 mph - N/A   Clear
7:53 PM 78.1 °F - 70.0 °F 76% 29.99 in 10.0 mi Calm Calm - N/A   Clear
8:53 PM 73.0 °F - 69.1 °F 87% 30.00 in 8.0 mi Calm Calm - N/A   Clear
9:53 PM 72.0 °F - 70.0 °F 93% 30.01 in 8.0 mi Calm Calm - N/A   Clear
10:53 PM 72.0 °F - 69.1 °F 91% 30.03 in 7.0 mi Calm Calm - N/A   Clear
11:53 PM 70.0 °F - 69.1 °F 97% 30.04 in 7.0 mi Calm Calm - N/A   Clear